Location: Bamazo
(6.7448°N, 10.8189°W)
Time: 03:54:07
(UTC+00:00)

Meteor 1-21 - Pass Details

Date: 18 September 2020
Orbit: 845 x 887 km, 81.2° (Epoch: 23 October)

Event Time Altitude Azimuth Distance (km) Brightness Sun altitude
Rises 20:07:05 0° 356° (N) 3,391 7.4 -22.1°
Reaches altitude 10° 20:09:29 10° 358° (N) 2,457 6.7 -22.7°
Maximum altitude 20:15:03 81° 84° (E) 858 4.0 -24.1°
Enters shadow 20:20:34 11° 172° (S) 2,436 6.5 -25.5°
